Weather History for Wheaton NDB, MN

Change the Weather History Date:

Saturday, September 1, 2012

  Actual Average Record
Temperature  
Mean Temperature 68 °F -  
Max Temperature 84 °F 79 °F 94 °F (1953)
Min Temperature 53 °F 55 °F 30 °F (1949)
Cooling Degree Days 4    
Growing Degree Days 18 (Base 50)    
Moisture  
Dew Point 56 °F    
Average Humidity 67    
Maximum Humidity 94    
Minimum Humidity 45    
Precipitation  
Precipitation 0.00 in - - ()
Sea Level Pressure  
Sea Level Pressure 30.05 in    
Wind  
Wind Speed 8 mph (ESE)    
Max Wind Speed 21 mph    
Max Gust Speed 28 mph    
Visibility 10 miles    
Events      
Averages and records for this station are not official NWS values.
T = Trace of Precipitation, MM = Missing Value Source: NWS Daily Summary

Daily Weather History Graph

Daily Weather History Graph

Search for Another Location

Airport:

Trip Planner

Search our weather history database for the weather conditions in past years. The results will help you decide how hot, cold, wet, or windy it might be!

Date:

Astronomy

Sep. 01, 2012 Rise Set
Actual Time 6:47 AM CDT 8:03 PM CDT
Civil Twilight 6:17 AM CDT 8:33 PM CDT
Nautical Twilight 5:40 AM CDT 9:10 PM CDT
Astronomical Twilight 5:00 AM CDT 9:49 PM CDT
Moon 8:11 PM CDT (9/1) 8:03 AM CDT (9/1)
Length of Visible Light 14h 16m
Length of Day
13h 15m
Full, 99% of the Moon is Illuminated
Sep 1
Full
Sep 8
Last Quarter
Sep 15
New
Sep 22
First Quarter
Sep 29
Full

Hourly Weather History & Observations

Time (CDT) Temp. Heat Index Dew Point Humidity Pressure Visibility Wind Dir Wind Speed Gust Speed Precip Events Conditions
12:15 AM 57.2 °F - 53.6 °F 88% 30.13 in 10.0 mi East 4.6 mph - N/A   Clear
12:18 AM 57.2 °F - 53.6 °F 88% 30.13 in 10.0 mi East 4.6 mph - N/A   Clear
12:34 AM 57.2 °F - 53.6 °F 88% 30.13 in 10.0 mi East 4.6 mph - N/A   Clear
12:39 AM 57.2 °F - 53.6 °F 88% 30.12 in 10.0 mi East 4.6 mph - N/A   Clear
12:54 AM 57.2 °F - 53.6 °F 88% 30.13 in 10.0 mi ESE 3.5 mph - N/A   Clear
12:59 AM 57.2 °F - 53.6 °F 88% 30.13 in 10.0 mi ESE 3.5 mph - N/A   Clear
1:14 AM 57.2 °F - 53.6 °F 88% 30.13 in 10.0 mi ESE 4.6 mph - N/A   Clear
1:18 AM 57.2 °F - 53.6 °F 88% 30.13 in 10.0 mi ESE 5.8 mph - N/A   Clear
1:34 AM 55.4 °F - 53.6 °F 94% 30.12 in 10.0 mi ESE 6.9 mph - N/A   Clear
1:38 AM 55.4 °F - 53.6 °F 94% 30.12 in 10.0 mi ESE 5.8 mph - N/A   Clear
1:54 AM 55.4 °F - 53.6 °F 94% 30.12 in 10.0 mi ESE 4.6 mph - N/A   Clear
1:58 AM 55.4 °F - 53.6 °F 94% 30.12 in 10.0 mi ESE 5.8 mph - N/A   Clear
2:15 AM 55.4 °F - 53.6 °F 94% 30.12 in 10.0 mi East 3.5 mph - N/A   Clear
2:18 AM 55.4 °F - 53.6 °F 94% 30.12 in 10.0 mi East 4.6 mph - N/A   Clear
2:35 AM 55.4 °F - 53.6 °F 94% 30.12 in 10.0 mi ESE 5.8 mph - N/A   Clear
2:38 AM 55.4 °F - 53.6 °F 94% 30.11 in 10.0 mi ESE 5.8 mph - N/A   Clear
2:54 AM 57.2 °F - 53.6 °F 88% 30.12 in 10.0 mi ESE 3.5 mph - N/A   Clear
2:58 AM 57.2 °F - 53.6 °F 88% 30.12 in 10.0 mi ESE 3.5 mph - N/A   Clear
3:14 AM 57.2 °F - 53.6 °F 88% 30.12 in 10.0 mi SE 3.5 mph - N/A   Clear
3:19 AM 57.2 °F - 53.6 °F 88% 30.12 in 10.0 mi ESE 4.6 mph - N/A   Clear
3:34 AM 57.2 °F - 53.6 °F 88% 30.12 in 10.0 mi ESE 3.5 mph - N/A   Clear
3:38 AM 55.4 °F - 53.6 °F 94% 30.12 in 10.0 mi ESE 4.6 mph - N/A   Clear
3:55 AM 57.2 °F - 53.6 °F 88% 30.12 in 10.0 mi East 3.5 mph - N/A   Clear
3:58 AM 57.2 °F - 53.6 °F 88% 30.12 in 10.0 mi East 3.5 mph - N/A   Clear
4:15 AM 57.2 °F - 53.6 °F 88% 30.12 in 10.0 mi ESE 3.5 mph - N/A   Clear
4:18 AM 57.2 °F - 53.6 °F 88% 30.12 in 10.0 mi ESE 3.5 mph - N/A   Clear
4:35 AM 55.4 °F - 53.6 °F 94% 30.13 in 10.0 mi East 3.5 mph - N/A   Clear
4:39 AM 55.4 °F - 53.6 °F 94% 30.13 in 10.0 mi East 3.5 mph - N/A   Clear
4:55 AM 55.4 °F - 53.6 °F 94% 30.13 in 10.0 mi East 3.5 mph - N/A   Clear
4:59 AM 57.2 °F - 53.6 °F 88% 30.13 in 10.0 mi East 3.5 mph - N/A   Clear
5:14 AM 55.4 °F - 51.8 °F 88% 30.13 in 10.0 mi East 4.6 mph - N/A   Clear
5:18 AM 55.4 °F - 51.8 °F 88% 30.13 in 10.0 mi East 4.6 mph - N/A   Clear
5:34 AM 55.4 °F - 51.8 °F 88% 30.12 in 10.0 mi East 4.6 mph - N/A   Clear
5:38 AM 55.4 °F - 51.8 °F 88% 30.12 in 10.0 mi East 4.6 mph - N/A   Clear
5:54 AM 55.4 °F - 51.8 °F 88% 30.12 in 10.0 mi Calm Calm - N/A   Clear
5:59 AM 55.4 °F - 51.8 °F 88% 30.12 in 10.0 mi Calm Calm - N/A   Clear
6:15 AM 55.4 °F - 51.8 °F 88% 30.12 in 10.0 mi ESE 3.5 mph - N/A   Clear
6:18 AM 55.4 °F - 51.8 °F 88% 30.12 in 10.0 mi SE 3.5 mph - N/A   Clear
6:34 AM 55.4 °F - 51.8 °F 88% 30.13 in 10.0 mi ESE 5.8 mph - N/A   Clear
6:38 AM 55.4 °F - 51.8 °F 88% 30.13 in 10.0 mi ESE 5.8 mph - N/A   Clear
6:58 AM 53.6 °F - 51.8 °F 94% 30.12 in 10.0 mi ESE 5.8 mph - N/A   Clear
7:14 AM 53.6 °F - 51.8 °F 94% 30.12 in 10.0 mi ESE 6.9 mph - N/A   Clear
7:18 AM 53.6 °F - 51.8 °F 94% 30.12 in 10.0 mi ESE 5.8 mph - N/A   Clear
7:34 AM 53.6 °F - 51.8 °F 94% 30.12 in 10.0 mi ESE 4.6 mph - N/A   Clear
7:38 AM 53.6 °F - 51.8 °F 94% 30.12 in 10.0 mi ESE 4.6 mph - N/A   Clear
7:55 AM 53.6 °F - 51.8 °F 94% 30.12 in 10.0 mi ESE 3.5 mph - N/A   Clear
7:58 AM 55.4 °F - 51.8 °F 88% 30.12 in 10.0 mi ESE 3.5 mph - N/A   Clear
8:14 AM 55.4 °F - 53.6 °F 94% 30.11 in 10.0 mi ESE 4.6 mph - N/A   Clear
8:18 AM 57.2 °F - 53.6 °F 88% 30.11 in 10.0 mi ESE 3.5 mph - N/A   Clear
8:34 AM 59.0 °F - 53.6 °F 82% 30.11 in 10.0 mi ESE 5.8 mph - N/A   Clear
8:39 AM 60.8 °F - 53.6 °F 77% 30.11 in 10.0 mi ESE 5.8 mph - N/A   Clear
8:55 AM 62.6 °F - 53.6 °F 72% 30.11 in 10.0 mi ESE 5.8 mph - N/A   Clear
8:59 AM 62.6 °F - 53.6 °F 72% 30.11 in 10.0 mi ESE 6.9 mph - N/A   Clear
9:14 AM 64.4 °F - 53.6 °F 68% 30.12 in 10.0 mi SE 5.8 mph - N/A   Clear
9:19 AM 64.4 °F - 53.6 °F 68% 30.12 in 10.0 mi SE 4.6 mph - N/A   Clear
9:34 AM 66.2 °F - 53.6 °F 64% 30.12 in 10.0 mi SE 5.8 mph - N/A   Clear
9:38 AM 66.2 °F - 53.6 °F 64% 30.12 in 10.0 mi SE 4.6 mph - N/A   Clear
9:55 AM 69.8 °F - 53.6 °F 56% 30.11 in 10.0 mi SE 8.1 mph - N/A   Clear
9:58 AM 69.8 °F - 53.6 °F 56% 30.11 in 10.0 mi ESE 9.2 mph - N/A   Clear
10:15 AM 69.8 °F - 53.6 °F 56% 30.10 in 10.0 mi SE 12.7 mph 18.4 mph N/A   Clear
10:18 AM 71.6 °F - 53.6 °F 53% 30.10 in 10.0 mi SE 12.7 mph 18.4 mph N/A   Clear
10:35 AM 71.6 °F - 55.4 °F 57% 30.09 in 10.0 mi SE 13.8 mph 18.4 mph N/A   Clear
10:38 AM 71.6 °F - 55.4 °F 57% 30.09 in 10.0 mi SE 12.7 mph 18.4 mph N/A   Clear
10:55 AM 73.4 °F - 55.4 °F 53% 30.09 in 10.0 mi SE 12.7 mph 17.3 mph N/A   Clear
10:58 AM 73.4 °F - 55.4 °F 53% 30.09 in 10.0 mi SE 13.8 mph 17.3 mph N/A   Clear
11:14 AM 73.4 °F - 57.2 °F 57% 30.09 in 10.0 mi SE 12.7 mph 17.3 mph N/A   Clear
11:19 AM 73.4 °F - 57.2 °F 57% 30.09 in 10.0 mi SE 10.4 mph 17.3 mph N/A   Clear
11:34 AM 75.2 °F - 57.2 °F 53% 30.08 in 10.0 mi SE 10.4 mph 16.1 mph N/A   Clear
11:38 AM 75.2 °F - 59.0 °F 57% 30.08 in 10.0 mi SE 10.4 mph 16.1 mph N/A   Clear
11:54 AM 75.2 °F - 59.0 °F 57% 30.07 in 10.0 mi SE 12.7 mph - N/A   Clear
11:58 AM 77.0 °F - 59.0 °F 54% 30.07 in 10.0 mi SE 12.7 mph - N/A   Clear
12:14 PM 78.8 °F - 60.8 °F 54% 30.07 in 10.0 mi SE 12.7 mph 19.6 mph N/A   Clear
12:19 PM 78.8 °F - 60.8 °F 54% 30.07 in 10.0 mi SE 13.8 mph - N/A   Clear
12:34 PM 78.8 °F - 62.6 °F 57% 30.06 in 10.0 mi SE 11.5 mph 17.3 mph N/A   Clear
12:39 PM 78.8 °F - 62.6 °F 57% 30.06 in 10.0 mi SSE 11.5 mph 17.3 mph N/A   Clear
12:54 PM 80.6 °F 81.8 °F 62.6 °F 54% 30.06 in 10.0 mi SE 15.0 mph - N/A   Clear
12:58 PM 80.6 °F 81.8 °F 62.6 °F 54% 30.06 in 10.0 mi SE 12.7 mph 17.3 mph N/A   Clear
1:15 PM 80.6 °F 81.8 °F 62.6 °F 54% 30.05 in 10.0 mi SE 16.1 mph - N/A   Clear
1:18 PM 80.6 °F 81.5 °F 60.8 °F 51% 30.05 in 10.0 mi SE 15.0 mph 18.4 mph N/A   Clear
1:35 PM 82.4 °F 83.4 °F 62.6 °F 51% 30.04 in 10.0 mi ESE 17.3 mph 21.9 mph N/A   Clear
1:38 PM 82.4 °F 83.4 °F 62.6 °F 51% 30.04 in 10.0 mi ESE 16.1 mph 21.9 mph N/A   Clear
1:55 PM 82.4 °F 83.4 °F 62.6 °F 51% 30.03 in 10.0 mi SE 12.7 mph 24.2 mph N/A   Clear
1:58 PM 82.4 °F 83.4 °F 62.6 °F 51% 30.03 in 10.0 mi SE 16.1 mph 24.2 mph N/A   Clear
2:14 PM 82.4 °F 83.4 °F 62.6 °F 51% 30.02 in 10.0 mi ESE 16.1 mph 23.0 mph N/A   Clear
2:19 PM 84.2 °F 85.0 °F 62.6 °F 48% 30.02 in 10.0 mi SE 15.0 mph 23.0 mph N/A   Clear
2:34 PM 84.2 °F 85.0 °F 62.6 °F 48% 30.01 in 10.0 mi SE 15.0 mph 20.7 mph N/A   Clear
2:38 PM 84.2 °F 85.0 °F 62.6 °F 48% 30.01 in 10.0 mi SE 16.1 mph 21.9 mph N/A   Clear
2:55 PM 84.2 °F 84.4 °F 60.8 °F 45% 30.01 in 10.0 mi SE 20.7 mph 24.2 mph N/A   Clear
2:58 PM 84.2 °F 84.4 °F 60.8 °F 45% 30.01 in 10.0 mi SE 16.1 mph 26.5 mph N/A   Clear
3:14 PM 84.2 °F 84.4 °F 60.8 °F 45% 30.00 in 10.0 mi SE 18.4 mph 26.5 mph N/A   Clear
3:18 PM 84.2 °F 84.4 °F 60.8 °F 45% 30.00 in 10.0 mi SE 17.3 mph 26.5 mph N/A   Clear
3:35 PM 84.2 °F 84.4 °F 60.8 °F 45% 29.99 in 10.0 mi SE 18.4 mph 26.5 mph N/A   Clear
3:39 PM 84.2 °F 84.4 °F 60.8 °F 45% 29.99 in 10.0 mi SE 16.1 mph 24.2 mph N/A   Clear
3:55 PM 84.2 °F 84.4 °F 60.8 °F 45% 29.98 in 10.0 mi SE 19.6 mph 26.5 mph N/A   Clear
3:58 PM 84.2 °F 84.4 °F 60.8 °F 45% 29.98 in 10.0 mi SE 18.4 mph 26.5 mph N/A   Clear
4:14 PM 84.2 °F 84.4 °F 60.8 °F 45% 29.98 in 10.0 mi SE 16.1 mph 23.0 mph N/A   Clear
4:18 PM 84.2 °F 84.4 °F 60.8 °F 45% 29.98 in 10.0 mi SE 19.6 mph 27.6 mph N/A   Clear
4:34 PM 84.2 °F 84.4 °F 60.8 °F 45% 29.97 in 10.0 mi SE 16.1 mph 24.2 mph N/A   Clear
4:38 PM 84.2 °F 84.4 °F 60.8 °F 45% 29.97 in 10.0 mi SE 17.3 mph 24.2 mph N/A   Clear
4:54 PM 84.2 °F 84.4 °F 60.8 °F 45% 29.97 in 10.0 mi SE 18.4 mph 26.5 mph N/A   Clear
4:58 PM 84.2 °F 84.4 °F 60.8 °F 45% 29.97 in 10.0 mi SE 18.4 mph 26.5 mph N/A   Clear
5:14 PM 84.2 °F 84.4 °F 60.8 °F 45% 29.97 in 10.0 mi SE 16.1 mph 24.2 mph N/A   Clear
5:18 PM 84.2 °F 84.4 °F 60.8 °F 45% 29.97 in 10.0 mi ESE 19.6 mph 24.2 mph N/A   Clear
5:34 PM 84.2 °F 84.4 °F 60.8 °F 45% 29.96 in 10.0 mi SE 16.1 mph 26.5 mph N/A   Clear
5:38 PM 84.2 °F 84.4 °F 60.8 °F 45% 29.96 in 10.0 mi SE 18.4 mph 25.3 mph N/A   Clear
5:54 PM 82.4 °F 82.9 °F 60.8 °F 48% 29.96 in 10.0 mi SE 17.3 mph 26.5 mph N/A   Clear
5:58 PM 82.4 °F 82.9 °F 60.8 °F 48% 29.96 in 10.0 mi SE 19.6 mph 26.5 mph N/A   Clear
6:14 PM 82.4 °F 82.9 °F 60.8 °F 48% 29.96 in 10.0 mi SE 18.4 mph 23.0 mph N/A   Clear
6:18 PM 82.4 °F 82.9 °F 60.8 °F 48% 29.96 in 10.0 mi ESE 13.8 mph 23.0 mph N/A   Clear
6:34 PM 82.4 °F 82.9 °F 60.8 °F 48% 29.95 in 10.0 mi ESE 17.3 mph 25.3 mph N/A   Clear
6:38 PM 80.6 °F 81.5 °F 60.8 °F 51% 29.95 in 10.0 mi ESE 19.6 mph 25.3 mph N/A   Clear
6:55 PM 80.6 °F 81.5 °F 60.8 °F 51% 29.95 in 10.0 mi ESE 15.0 mph 23.0 mph N/A   Clear
6:59 PM 80.6 °F 81.1 °F 59.0 °F 48% 29.95 in 10.0 mi ESE 15.0 mph 23.0 mph N/A   Clear
7:14 PM 78.8 °F - 59.0 °F 51% 29.95 in 10.0 mi ESE 15.0 mph 19.6 mph N/A   Clear
7:18 PM 78.8 °F - 59.0 °F 51% 29.95 in 10.0 mi ESE 12.7 mph 19.6 mph N/A   Clear
7:35 PM 75.2 °F - 59.0 °F 57% 29.95 in 10.0 mi ESE 13.8 mph - N/A   Clear
7:38 PM 75.2 °F - 59.0 °F 57% 29.95 in 10.0 mi ESE 12.7 mph - N/A   Clear
7:54 PM 75.2 °F - 57.2 °F 53% 29.95 in 10.0 mi ESE 12.7 mph - N/A   Clear
7:58 PM 75.2 °F - 57.2 °F 53% 29.95 in 10.0 mi ESE 12.7 mph - N/A   Clear
8:14 PM 73.4 °F - 57.2 °F 57% 29.95 in 10.0 mi ESE 12.7 mph - N/A   Clear
8:18 PM 73.4 °F - 57.2 °F 57% 29.95 in 10.0 mi ESE 12.7 mph - N/A   Clear
8:34 PM 73.4 °F - 57.2 °F 57% 29.95 in 10.0 mi ESE 15.0 mph 18.4 mph N/A   Clear
8:38 PM 73.4 °F - 55.4 °F 53% 29.95 in 10.0 mi ESE 13.8 mph 18.4 mph N/A   Clear
8:54 PM 73.4 °F - 55.4 °F 53% 29.95 in 10.0 mi ESE 12.7 mph - N/A   Clear
9:14 PM 71.6 °F - 55.4 °F 57% 29.95 in 10.0 mi ESE 13.8 mph - N/A   Clear
9:18 PM 71.6 °F - 55.4 °F 57% 29.96 in 10.0 mi SE 11.5 mph - N/A   Clear
9:35 PM 71.6 °F - 55.4 °F 57% 29.96 in 10.0 mi ESE 15.0 mph - N/A   Clear
9:38 PM 71.6 °F - 55.4 °F 57% 29.95 in 10.0 mi ESE 13.8 mph - N/A   Clear
9:54 PM 71.6 °F - 55.4 °F 57% 29.95 in 10.0 mi ESE 17.3 mph 21.9 mph N/A   Clear
9:59 PM 71.6 °F - 55.4 °F 57% 29.95 in 10.0 mi ESE 16.1 mph 21.9 mph N/A   Clear
10:14 PM 69.8 °F - 55.4 °F 60% 29.95 in 10.0 mi SE 13.8 mph 20.7 mph N/A   Clear
10:18 PM 69.8 °F - 55.4 °F 60% 29.95 in 10.0 mi SE 15.0 mph 20.7 mph N/A   Clear
10:35 PM 69.8 °F - 55.4 °F 60% 29.95 in 10.0 mi SE 16.1 mph - N/A   Clear
10:38 PM 69.8 °F - 55.4 °F 60% 29.95 in 10.0 mi SE 15.0 mph 18.4 mph N/A   Clear
10:58 PM 69.8 °F - 55.4 °F 60% 29.95 in 10.0 mi SE 15.0 mph 20.7 mph N/A   Clear
11:15 PM 69.8 °F - 55.4 °F 60% 29.94 in 10.0 mi SE 15.0 mph - N/A   Clear
11:19 PM 69.8 °F - 55.4 °F 60% 29.94 in 10.0 mi SE 16.1 mph - N/A   Clear
11:34 PM 69.8 °F - 55.4 °F 60% 29.94 in 10.0 mi SE 16.1 mph 23.0 mph N/A   Clear
11:54 PM 69.8 °F - 53.6 °F 56% 29.94 in 10.0 mi SE 16.1 mph 25.3 mph N/A   Clear
11:59 PM 69.8 °F - 53.6 °F 56% 29.93 in 10.0 mi SE 16.1 mph 25.3 mph N/A   Clear